sat.trackr.live / text

‹ back to catalog

STARLINK-3904

NORAD 52464 · 2022-049P

PAYLOAD ACTIVE UNKNOWN

§ Identity

Operator
Country
US
Launch date
2022-05-06
Launch site
AFETR
Launch vehicle
Mass (kg)
RCS (m²)

Purposes: comms

External: N2YO · Heavens-Above · Gunter

§ Orbital elements

Epoch: 2026-09-20T02:37:19.829856Z

Period
93.79 min
Inclination
53.1597°
Eccentricity
0.0001296
Mean motion
15.35401867 rev/d
Perigee alt
458.8 km
Apogee alt
460.6 km
Semi-major
6,837.9 km
B*
2.6626e-5
RAAN
255.3939°
Arg perigee
84.0732°
Mean anomaly
276.0419°
Rev number
24,174

§ Raw data

STARLINK-39041 52464U 22049P   26263.10925729  .00000548  00000+0  26626-4 0  99942 52464  53.1597 255.3939 0001296  84.0732 276.0419 15.35401867241748

JSON: /api/v1/satellites/52464 · /tle

For live sub-satellite position, see the globe view (requires WebGL).

§ Visibility from observer

Set your observer location to see the next 7 days of passes ≥ 10°. The values pass through the URL so the page stays shareable.

No JS? Fill the form by hand. The geolocation button needs JavaScript.